When you browse on this site, cookies collect data to enhance your experience and personalize the content and advertising you see.
Visit our Privacy Policy to learn more. By continuing to use the site, you agree to this use of cookies and data.
  • In Austria
  • List of Countries
  • For 7 days
  • Water Temperature
  • Weather Map
  • News
  • Weather Widgets
  • user-avatar
    Login

    Hourly Weather Zastavche

    Today, 23 August, Friday

    Time Temperature Precipitation Wind Pressure Humidity
    00:00 +17°C° 0 mm 2 mps 745 mmHg 90%
    01:00 +17°C° 0 mm 2 mps 745 mmHg 91%
    02:00 +16°C° 0 mm 2 mps 745 mmHg 94%
    03:00 +16°C° 0.3 mm 2 mps 745 mmHg 94%
    04:00 +16°C° 0.3 mm 2 mps 745 mmHg 95%
    05:00 +16°C° 0.3 mm 2 mps 745 mmHg 96%
    06:00 +17°C° 0 mm 3 mps 745 mmHg 92%
    07:00 +18°C° 0 mm 3 mps 745 mmHg 89%
    08:00 +19°C° 0 mm 3 mps 746 mmHg 84%
    09:00 +20°C° 0 mm 3 mps 746 mmHg 78%
    10:00 +21°C° 0 mm 3 mps 746 mmHg 71%
    11:00 +24°C° 0 mm 2 mps 746 mmHg 65%
    12:00 +24°C° 0 mm 2 mps 745 mmHg 63%
    13:00 +25°C° 0 mm 2 mps 745 mmHg 61%
    14:00 +25°C° 0 mm 2 mps 745 mmHg 58%
    15:00 +25°C° 0 mm 2 mps 745 mmHg 59%
    16:00 +25°C° 0 mm 3 mps 745 mmHg 59%
    17:00 +25°C° 0 mm 3 mps 745 mmHg 60%
    18:00 +24°C° 0 mm 3 mps 745 mmHg 65%
    19:00 +21°C° 0 mm 3 mps 745 mmHg 70%
    20:00 +19°C° 0 mm 3 mps 745 mmHg 75%
    21:00 +19°C° 0 mm 3 mps 745 mmHg 76%
    22:00 +18°C° 0 mm 3 mps 745 mmHg 76%
    23:00 +17°C° 0 mm 3 mps 745 mmHg 76%

    Tomorrow, 24 August, Saturday

    Time Temperature Precipitation Wind Pressure Humidity
    00:00 +17°C° 0 mm 2 mps 745 mmHg 77%
    01:00 +16°C° 0 mm 2 mps 745 mmHg 79%
    02:00 +16°C° 0 mm 2 mps 745 mmHg 80%
    03:00 +16°C° 0 mm 2 mps 745 mmHg 81%
    04:00 +15°C° 0 mm 2 mps 745 mmHg 83%
    05:00 +15°C° 0 mm 2 mps 745 mmHg 84%
    06:00 +16°C° 0 mm 2 mps 745 mmHg 81%
    07:00 +17°C° 0 mm 3 mps 744 mmHg 77%
    08:00 +19°C° 0 mm 3 mps 744 mmHg 74%
    09:00 +20°C° 0 mm 3 mps 744 mmHg 69%
    10:00 +22°C° 0 mm 3 mps 745 mmHg 63%
    11:00 +25°C° 0 mm 3 mps 745 mmHg 57%
    12:00 +25°C° 0 mm 3 mps 744 mmHg 55%
    13:00 +26°C° 0 mm 3 mps 744 mmHg 53%
    14:00 +27°C° 0 mm 3 mps 744 mmHg 51%
    15:00 +27°C° 0 mm 3 mps 743 mmHg 53%
    16:00 +27°C° 0 mm 3 mps 743 mmHg 55%
    17:00 +26°C° 0 mm 4 mps 743 mmHg 57%
    18:00 +25°C° 0 mm 4 mps 743 mmHg 61%
    19:00 +22°C° 0 mm 4 mps 743 mmHg 66%
    20:00 +20°C° 0 mm 4 mps 743 mmHg 71%
    21:00 +20°C° 0 mm 4 mps 743 mmHg 72%
    22:00 +19°C° 0 mm 4 mps 743 mmHg 74%
    23:00 +19°C° 0 mm 4 mps 743 mmHg 76%

    Day after tomorrow, 25 August, Sunday

    Time Temperature Precipitation Wind Pressure Humidity
    00:00 +18°C° 0 mm 3 mps 743 mmHg 79%
    01:00 +17°C° 0 mm 3 mps 743 mmHg 82%
    02:00 +17°C° 0 mm 3 mps 743 mmHg 85%
    03:00 +17°C° 0 mm 3 mps 743 mmHg 86%
    04:00 +16°C° 0 mm 3 mps 743 mmHg 87%
    05:00 +16°C° 0 mm 3 mps 743 mmHg 87%
    06:00 +17°C° 0 mm 3 mps 743 mmHg 83%
    07:00 +19°C° 0 mm 4 mps 743 mmHg 78%
    08:00 +20°C° 0 mm 4 mps 743 mmHg 74%
    09:00 +21°C° 0 mm 4 mps 743 mmHg 70%
    10:00 +23°C° 0 mm 4 mps 743 mmHg 65%
    11:00 +26°C° 0 mm 4 mps 743 mmHg 61%
    12:00 +27°C° 0 mm 4 mps 743 mmHg 59%
    13:00 +28°C° 0 mm 4 mps 743 mmHg 56%
    14:00 +28°C° 0 mm 4 mps 743 mmHg 54%
    15:00 +28°C° 0 mm 4 mps 743 mmHg 56%
    16:00 +28°C° 0 mm 4 mps 742 mmHg 57%
    17:00 +28°C° 0 mm 4 mps 742 mmHg 58%
    18:00 +26°C° 0 mm 5 mps 742 mmHg 62%
    19:00 +25°C° 0 mm 5 mps 742 mmHg 66%
    20:00 +22°C° 0 mm 5 mps 742 mmHg 69%
    21:00 +21°C° 0.1 mm 5 mps 743 mmHg 69%
    22:00 +21°C° 0.1 mm 5 mps 743 mmHg 69%
    23:00 +20°C° 0.1 mm 5 mps 743 mmHg 68%

    26 August, Monday

    Time Temperature Precipitation Wind Pressure Humidity
    00:00 +19°C° 0 mm 5 mps 743 mmHg 66%
    01:00 +19°C° 0 mm 4 mps 743 mmHg 64%
    02:00 +19°C° 0 mm 4 mps 743 mmHg 61%
    03:00 +18°C° 0 mm 4 mps 743 mmHg 60%
    04:00 +18°C° 0 mm 4 mps 743 mmHg 59%
    05:00 +18°C° 0 mm 4 mps 742 mmHg 57%
    06:00 +19°C° 0 mm 4 mps 742 mmHg 57%
    07:00 +20°C° 0 mm 4 mps 743 mmHg 57%
    08:00 +21°C° 0 mm 5 mps 743 mmHg 57%
    09:00 +22°C° 0 mm 5 mps 743 mmHg 53%
    10:00 +25°C° 0 mm 5 mps 743 mmHg 50%
    11:00 +27°C° 0 mm 5 mps 743 mmHg 46%
    12:00 +28°C° 0 mm 5 mps 743 mmHg 45%
    13:00 +29°C° 0 mm 5 mps 743 mmHg 43%
    14:00 +30°C° 0 mm 5 mps 742 mmHg 42%
    15:00 +29°C° 0 mm 5 mps 742 mmHg 44%
    16:00 +29°C° 0 mm 5 mps 742 mmHg 46%
    17:00 +28°C° 0 mm 4 mps 742 mmHg 49%
    18:00 +27°C° 0 mm 4 mps 742 mmHg 52%
    19:00 +25°C° 0 mm 4 mps 742 mmHg 54%
    20:00 +22°C° 0 mm 4 mps 741 mmHg 57%
    21:00 +21°C° 0 mm 4 mps 742 mmHg 58%
    22:00 +21°C° 0 mm 4 mps 742 mmHg 58%
    23:00 +20°C° 0 mm 3 mps 742 mmHg 59%

    27 August, Tuesday

    Time Temperature Precipitation Wind Pressure Humidity
    00:00 +19°C° 0 mm 3 mps 742 mmHg 63%
    01:00 +19°C° 0 mm 3 mps 742 mmHg 67%
    02:00 +18°C° 0 mm 3 mps 741 mmHg 71%
    03:00 +18°C° 0 mm 3 mps 741 mmHg 72%
    04:00 +17°C° 0 mm 2 mps 741 mmHg 74%
    05:00 +16°C° 0 mm 2 mps 741 mmHg 75%
    06:00 +18°C° 0 mm 2 mps 742 mmHg 71%
    07:00 +19°C° 0 mm 2 mps 742 mmHg 68%
    08:00 +20°C° 0 mm 2 mps 742 mmHg 64%
    09:00 +23°C° 0 mm 2 mps 742 mmHg 58%
    10:00 +26°C° 0 mm 3 mps 742 mmHg 51%
    11:00 +28°C° 0 mm 3 mps 742 mmHg 45%
    12:00 +29°C° 0 mm 3 mps 742 mmHg 42%
    13:00 +30°C° 0 mm 2 mps 742 mmHg 39%
    14:00 +30°C° 0 mm 2 mps 742 mmHg 36%
    15:00 +30°C° 0 mm 2 mps 742 mmHg 38%
    16:00 +30°C° 0 mm 2 mps 741 mmHg 40%
    17:00 +30°C° 0 mm 2 mps 741 mmHg 42%
    18:00 +28°C° 0 mm 3 mps 741 mmHg 46%
    19:00 +25°C° 0 mm 3 mps 741 mmHg 51%
    20:00 +22°C° 0 mm 3 mps 741 mmHg 56%
    21:00 +21°C° 0 mm 3 mps 741 mmHg 59%
    22:00 +20°C° 0 mm 3 mps 741 mmHg 62%
    23:00 +19°C° 0 mm 3 mps 742 mmHg 65%

    28 August, Wednesday

    Time Temperature Precipitation Wind Pressure Humidity
    00:00 +19°C° 0 mm 3 mps 742 mmHg 66%
    01:00 +19°C° 0 mm 3 mps 742 mmHg 67%
    02:00 +18°C° 0 mm 3 mps 741 mmHg 68%
    03:00 +18°C° 0 mm 3 mps 741 mmHg 69%
    04:00 +17°C° 0 mm 3 mps 741 mmHg 69%
    05:00 +17°C° 0 mm 3 mps 741 mmHg 69%
    06:00 +18°C° 0 mm 3 mps 741 mmHg 66%
    07:00 +20°C° 0 mm 3 mps 741 mmHg 62%
    08:00 +21°C° 0 mm 4 mps 741 mmHg 59%
    09:00 +23°C° 0 mm 4 mps 741 mmHg 54%
    10:00 +26°C° 0 mm 4 mps 741 mmHg 48%
    11:00 +28°C° 0 mm 4 mps 741 mmHg 43%
    12:00 +29°C° 0 mm 4 mps 741 mmHg 41%
    13:00 +30°C° 0 mm 4 mps 741 mmHg 38%
    14:00 +32°C° 0 mm 4 mps 740 mmHg 36%
    15:00 +30°C° 0 mm 4 mps 740 mmHg 38%
    16:00 +30°C° 0 mm 4 mps 740 mmHg 41%
    17:00 +29°C° 0 mm 4 mps 739 mmHg 44%
    18:00 +27°C° 0 mm 4 mps 739 mmHg 49%
    19:00 +25°C° 0 mm 4 mps 739 mmHg 55%
    20:00 +22°C° 0 mm 4 mps 739 mmHg 60%
    21:00 +21°C° 0 mm 4 mps 739 mmHg 61%
    22:00 +20°C° 0 mm 4 mps 739 mmHg 62%
    23:00 +20°C° 0 mm 4 mps 739 mmHg 63%
    Show more